Location: Eschentzwiller
(47.7125°N, 7.3981°E)
Time: 01:23:23
(UTC+00:00)

SJ-11-01 - Pass Details

Date: 27 October 2020
Orbit: 685 x 700 km, 98.0° (Epoch: 26 November)

Event Time Altitude Azimuth Distance (km) Brightness Sun altitude
Exits shadow 17:53:41 11° 142° (SE) 2,034 6.4 -16.3°
Maximum altitude 17:57:53 47° 70° (ENE) 908 4.5 -17.0°
Drops below altitude 10° 18:02:23 10° 357° (N) 2,148 6.9 -17.7°
Sets 18:04:42 0° 352° (N) 3,071 7.7 -18.1°
